[[{"header":{"parameterUnit":"m.s-1","parameterCategory":2,"la1":30.2991,"la2":30.254,"lo1":-89.0895,"lo2":-89.0444,"dy":0.0017,"dx":0.0017,"nx":28,"ny":28,"refTime":"2025-11-23T09:00:00:Z","depth":"0","parameterNumber":2,"parameterNumberName":"U-component_of_CURRENTS"},"data":[0,0,0,0,0,0,0,0,0,0,0,0,0,0,0,0,0,0,0,0,0,0,0,0,0,0,0,0,0,0,0,0,0,0,0,0,0,0,0,0,0,0,0,0,0,0,0,0,0,0,0,0,0,0,0,0,0,0,0.3173,0.3173,0,0.3171,0.3171,0.3171,0.3137,0.3137,0.3136,0.3136,0.3108,0.3108,0.3108,0,0,0,0,0,0,0,0,0,0,0,0,0,0.316,0.316,0.3173,0.3173,0.3173,0.3172,0.3171,0.3171,0.3138,0.3137,0.3136,0.3135,0.3108,0.3108,0.3108,0,0,0,0,0,0,0,0,0,0,0,0,0,0.316,0.316,0.3173,0.3158,0.3157,0.3172,0.3171,0.3171,0.3138,0.3137,0.3136,0.3135,0.3108,0.3108,0.3108,0.3126,0,0,0.3107,0.3107,0,0,0,0,0,0,0,0,0.316,0.316,0.316,0.3159,0.3158,0.3156,0.3157,0.3155,0.3138,0.3142,0.3136,0.3134,0.3124,0.3123,0.3121,0.3124,0.3123,0.3107,0.3107,0.3107,0.3107,0,0,0,0,0,0,0,0.316,0.316,0.317,0.3161,0.3159,0.3157,0.3155,0.3156,0.3136,0.3142,0.314,0.3144,0.3123,0.3122,0.312,0.3123,0.3107,0.3107,0.3107,0.3107,0.3173,0.3175,0,0,0,0,0,0,0.3166,0.316,0.317,0.317,0.316,0.3158,0.3156,0.3156,0.3137,0.3134,0.3145,0.3143,0.3122,0.3121,0.3119,0.3163,0.3107,0.3107,0.3107,0.3171,0.3173,0.3175,0,0,0,0,0,0,0.3166,0.3167,0.317,0.3167,0.3168,0.3159,0.3159,0.3156,0.3158,0.314,0.3136,0.3151,0.3122,0.312,0.3132,0.316,0.3107,0.3107,0.3169,0.3172,0.3174,0.3235,0,0,0,0,0,0,0.3165,0.3166,0.3171,0.3168,0.3168,0.3186,0.316,0.3157,0.3163,0.316,0.3144,0.314,0.3121,0.3132,0.3132,0.3159,0.3107,0.3167,0.317,0.3174,0.323,0.3239,0.3247,0,0,0,0,0,0.3164,0.3173,0.3171,0.3172,0.3173,0.3187,0.3187,0.3176,0.3165,0.3173,0.3165,0.314,0.3154,0.3134,0.3132,0.316,0.3165,0.3169,0.3173,0.3227,0.3237,0.3246,0,0,0,0,0,0,0.3167,0.317,0.3168,0.3176,0.3186,0.3183,0.319,0.3185,0.3185,0.3182,0.3159,0.3156,0.3183,0.3167,0.3145,0.3193,0.3158,0.3162,0.3199,0.3209,0.3217,0.3231,0.3106,0,0,0,0,0,0.3172,0.3178,0.3185,0.3192,0.3199,0.3198,0.3203,0.32,0.32,0.3198,0.3188,0.3187,0.3201,0.3199,0.3206,0.3226,0.3233,0.3246,0.3255,0.3262,0.3274,0.3318,0.3331,0.3189,0.3189,0.3189,0,0,0.3172,0.3178,0.318,0.3194,0.3198,0.3217,0.3198,0.3212,0.323,0.3197,0.3215,0.3218,0.3216,0.3242,0.3253,0.3229,0.3307,0.3267,0.3273,0.3282,0.3324,0.3338,0.335,0.3192,0.3192,0.3191,0,0,0.3183,0.3186,0.3197,0.3212,0.323,0.3235,0.3244,0.3251,0.3255,0.3276,0.3268,0.3291,0.3292,0.3306,0.3311,0.3372,0.3356,0.3372,0.3415,0.3457,0.3469,0.348,0.3509,0.3521,0.3368,0.3368,0.3368,0,0.3185,0.3197,0.3204,0.3225,0.3239,0.3247,0.3268,0.3283,0.3293,0.3309,0.3288,0.3333,0.3327,0.3379,0.3398,0.3391,0.3406,0.3372,0.3468,0.3478,0.3488,0.3515,0.3528,0.3371,0.3371,0.3371,0.337,0,0.3205,0.3218,0.323,0.3257,0.3278,0.3296,0.3322,0.3344,0.335,0.3366,0.3415,0.3418,0.3441,0.3451,0.3438,0.3513,0.3499,0.3479,0.344,0.3506,0.353,0.3543,0.3376,0.3375,0.3374,0.3373,0,0,0.3188,0.3233,0.3234,0.3248,0.3294,0.3306,0.3356,0.3398,0.3437,0.3453,0.3501,0.3534,0.354,0.3549,0.3548,0.3584,0.3663,0.3561,0.3561,0.3585,0.3754,0.3695,0.3703,0.3658,0.366,0.3662,0.3743,0,0.3195,0.3228,0.3257,0.3291,0.3307,0.3345,0.3391,0.3436,0.3477,0.3529,0.3557,0.3604,0.3576,0.3596,0.3631,0.3664,0.3699,0.3643,0.3691,0.3692,0.3628,0.3717,0.3547,0.3601,0.3755,0.3757,0.3759,0,0.3195,0.3218,0.3249,0.33,0.3313,0.3342,0.3416,0.3462,0.3554,0.3592,0.3651,0.3673,0.3742,0.3702,0.3788,0.3753,0.3761,0.3777,0.378,0.3714,0.3657,0.3561,0.3618,0.3523,0.3778,0.3776,0.3775,0,0.3154,0.3205,0.3224,0.3241,0.331,0.3336,0.338,0.3475,0.3531,0.3642,0.3689,0.3769,0.3807,0.3847,0.3868,0.3838,0.3956,0.3913,0.3869,0.3864,0.3724,0.3703,0.369,0.3976,0.3976,0.3976,0.3976,0,0.3136,0.3146,0.3203,0.3209,0.3245,0.331,0.3372,0.3443,0.3559,0.3623,0.3711,0.377,0.3847,0.3906,0.3914,0.3938,0.3991,0.3904,0.3894,0.374,0.372,0.3632,0.3584,0.3979,0.3978,0.3978,0.3977,0,0.3076,0.3114,0.3135,0.3201,0.3221,0.3247,0.3351,0.3403,0.3527,0.3616,0.3652,0.3798,0.388,0.394,0.4022,0.399,0.391,0.4011,0.3822,0.3788,0.3634,0.3595,0.3488,0.3383,0.398,0.398,0.3979,0,0.3045,0.3051,0.3108,0.3118,0.3143,0.3194,0.3232,0.3368,0.3432,0.361,0.3641,0.3778,0.3846,0.3966,0.3964,0.3994,0.3872,0.3831,0.3743,0.3628,0.3578,0.3466,0.3376,0.3583,0.3579,0.3576,0.3574,0,0.2986,0.3008,0.3025,0.3048,0.3075,0.3113,0.3179,0.3226,0.3375,0.3455,0.3572,0.3658,0.3795,0.3773,0.3831,0.3818,0.3638,0.3766,0.3697,0.3318,0.3145,0.3036,0.3528,0.3546,0.3548,0.3551,0.3552,0.3553,0.2934,0.2928,0.2949,0.2959,0.2985,0.3001,0.2995,0.3076,0.3146,0.3225,0.3405,0.3457,0.3551,0.3624,0.3601,0.3454,0.3462,0.3317,0.3298,0.3211,0.3043,0.3476,0.3449,0.3451,0.3453,0.3455,0.3456,0,0.2848,0.2847,0.2857,0.2848,0.2824,0.2886,0.2923,0.2891,0.289,0.302,0.31,0.3155,0.3159,0.3209,0.3148,0.3008,0.2883,0.2903,0.27,0.2649,0.3079,0.2995,0.2806,0.2806,0.2806,0.2806,0.2807,0.2807,0.2802,0.2763,0.2761,0.2679,0.2674,0.259,0.2581,0.2562,0.2606,0.2606,0.2622,0.2729,0.2894,0.2913,0.2773,0.269,0.2471,0.234,0.2366,0.2665,0.2702,0.2736,0.2647,0.2389,0.2388,0.1813,0.1809,0.1805]},{"header":{"parameterUnit":"m.s-1","parameterCategory":2,"la1":30.2991,"la2":30.254,"lo1":-89.0895,"lo2":-89.0444,"dy":0.0017,"dx":0.0017,"nx":28,"ny":28,"refTime":"2025-11-23T09:00:00:Z","depth":"0","parameterNumber":3,"parameterNumberName":"V-component_of_CURRENTS"},"data":[0,0,0,0,0,0,0,0,0,0,0,0,0,0,0,0,0,0,0,0,0,0,0,0,0,0,0,0,0,0,0,0,0,0,0,0,0,0,0,0,0,0,0,0,0,0,0,0,0,0,0,0,0,0,0,0,0,0,0.0007,0.0007,0,-0.0043,-0.0044,-0.0044,-0.008,-0.008,-0.008,-0.008,-0.015,-0.0152,-0.0154,0,0,0,0,0,0,0,0,0,0,0,0,0,0.0015,0.0015,0.0007,0.0007,0.0006,-0.0043,-0.0044,-0.0045,-0.008,-0.008,-0.008,-0.008,-0.015,-0.0152,-0.0154,0,0,0,0,0,0,0,0,0,0,0,0,0,-0.0009,0.0015,0.0007,-0.0016,-0.0018,-0.0043,-0.0044,-0.0045,-0.008,-0.008,-0.008,-0.008,-0.0149,-0.0152,-0.0155,-0.0169,0,0,-0.0163,-0.0164,0,0,0,0,0,0,0,0,-0.0008,-0.001,-0.0012,-0.0014,-0.0017,-0.0053,-0.0067,-0.0087,-0.008,-0.0059,-0.008,-0.008,-0.0118,-0.0124,-0.0136,-0.0172,-0.0176,-0.0163,-0.0165,-0.0166,-0.0167,0,0,0,0,0,0,0,-0.0006,-0.0008,-0.0015,-0.0012,-0.0015,-0.0043,-0.0046,-0.0071,-0.0089,-0.006,-0.0063,-0.0064,-0.012,-0.0133,-0.0138,-0.0177,-0.0163,-0.0165,-0.0167,-0.0168,-0.0221,-0.0221,0,0,0,0,0,0,0.0008,-0.0006,-0.0013,-0.0016,-0.001,-0.0042,-0.0046,-0.0043,-0.0089,-0.0095,-0.0064,-0.0066,-0.0128,-0.0134,-0.014,-0.0139,-0.0166,-0.0168,-0.017,-0.0221,-0.0221,-0.0221,0,0,0,0,0,0,0.0008,0.0008,-0.0011,-0.0011,-0.0015,-0.0042,-0.0039,-0.0044,-0.0052,-0.0091,-0.0098,-0.0066,-0.0129,-0.0136,-0.0153,-0.0143,-0.017,-0.0172,-0.0222,-0.0221,-0.0221,-0.0151,0,0,0,0,0,0,0.0009,0.0009,0.0013,-0.001,-0.0014,-0.0015,-0.0038,-0.0045,-0.0053,-0.0055,-0.0095,-0.0102,-0.0129,-0.0149,-0.0156,-0.0147,-0.0174,-0.0222,-0.0222,-0.0221,-0.0153,-0.0148,-0.0143,0,0,0,0,0,0.0009,0.0023,0.0014,0.0013,-0.0006,-0.0014,-0.0019,-0.0041,-0.0052,-0.005,-0.0077,-0.01,-0.0152,-0.0151,-0.0159,-0.0151,-0.0222,-0.0222,-0.0221,-0.0155,-0.0149,-0.0144,0,0,0,0,0,0,0.0029,0.002,0.001,0.0019,0.0008,-0.0019,-0.0019,-0.0034,-0.0055,-0.0058,-0.0097,-0.0105,-0.0118,-0.0145,-0.0143,-0.0166,-0.0191,-0.0193,-0.0139,-0.0133,-0.0128,-0.0108,-0.0176,0,0,0,0,0,0.0036,0.0043,0.0028,0.0035,0.0032,0.0006,-0.0001,-0.0014,-0.0034,-0.0043,-0.007,-0.01,-0.0124,-0.0135,-0.0163,-0.0172,-0.0195,-0.0174,-0.0169,-0.0164,-0.0154,-0.0178,-0.0174,-0.0219,-0.0219,-0.0219,0,0,0.0044,0.0041,0.0043,0.0039,0.0026,0.0035,0.0001,-0.0002,0.0005,-0.0048,-0.0049,-0.0085,-0.0124,-0.0135,-0.0144,-0.0154,-0.0164,-0.0164,-0.016,-0.0152,-0.0177,-0.0173,-0.0169,-0.0219,-0.0219,-0.0219,0,0,0.0072,0.0062,0.0081,0.0076,0.0067,0.0055,0.0059,0.0038,0.0028,0.0018,-0.0017,-0.0041,-0.0079,-0.0101,-0.0118,-0.0103,-0.0139,-0.0116,-0.0071,-0.0094,-0.009,-0.0087,-0.0108,-0.0107,-0.011,-0.011,-0.011,0,0.0082,0.0106,0.0084,0.0101,0.0107,0.0072,0.0096,0.008,0.0056,0.0055,0.0028,-0.0023,-0.0061,-0.0068,-0.0067,-0.009,-0.0109,-0.0087,-0.0086,-0.0083,-0.0081,-0.0104,-0.0104,-0.0107,-0.0107,-0.0108,-0.0108,0,0.0126,0.0143,0.0154,0.0168,0.0169,0.0183,0.0165,0.0159,0.0138,0.0124,0.0106,0.0049,0.0024,0.0001,-0.003,-0.0032,-0.0053,-0.0077,-0.0096,-0.0072,-0.0098,-0.0099,-0.0102,-0.0103,-0.0104,-0.0105,0,0,0.016,0.0183,0.0188,0.0211,0.0209,0.022,0.0227,0.0233,0.0254,0.0204,0.0221,0.0158,0.0125,0.0103,0.0056,0.0028,0.0017,-0.0014,-0.0017,-0.0025,-0.0031,-0.0042,-0.0045,-0.0007,-0.0006,-0.0006,-0.0053,0,0.0205,0.0261,0.0257,0.0308,0.0337,0.0312,0.0328,0.0323,0.0312,0.0317,0.0249,0.0241,0.0166,0.0155,0.0115,0.0047,0.0016,0.0032,-0.0061,-0.0063,-0.0068,-0.0046,-0.0018,-0.0057,-0.0055,-0.0055,-0.0055,0,0.0257,0.029,0.0351,0.0392,0.0402,0.0421,0.0452,0.0465,0.0454,0.0445,0.0416,0.0363,0.0314,0.0243,0.0139,0.0154,0.0069,0.0005,0.0001,-0.0033,-0.0077,-0.0082,-0.006,-0.019,-0.0058,-0.0058,-0.0058,0,0.0308,0.036,0.0415,0.0427,0.046,0.0478,0.0496,0.0504,0.0543,0.0531,0.055,0.0474,0.0451,0.0332,0.0188,0.0167,0.0072,0.0027,-0.0066,-0.0068,-0.0073,-0.0076,-0.0178,-0.0049,-0.0049,-0.0049,-0.0049,0,0.0365,0.0409,0.0442,0.0471,0.0544,0.054,0.0616,0.062,0.0652,0.0716,0.0623,0.0652,0.0473,0.0389,0.0236,0.0093,0.0109,-0.0048,-0.0076,-0.0049,-0.0048,-0.0187,-0.0276,-0.0051,-0.0051,-0.005,-0.005,0,0.0415,0.0432,0.0502,0.0549,0.057,0.0623,0.0706,0.0766,0.0774,0.0852,0.0851,0.0799,0.0697,0.0506,0.0329,0.0179,-0.0053,-0.0037,0.0009,-0.0013,-0.0226,-0.0311,-0.0462,-0.0517,-0.0141,-0.0141,-0.0142,0,0.0446,0.0486,0.0566,0.0619,0.0643,0.0722,0.0785,0.0827,0.0908,0.0952,0.1003,0.0924,0.0906,0.0642,0.0365,0.0108,-0.0051,-0.0054,-0.0098,-0.0223,-0.034,-0.041,-0.045,-0.0081,-0.0081,-0.0081,-0.008,0,0.051,0.0533,0.0592,0.0701,0.0777,0.0879,0.0973,0.1057,0.1112,0.1183,0.1264,0.1248,0.0998,0.0772,0.0403,0.0209,-0.0141,-0.0061,-0.0201,-0.0306,-0.0378,-0.0447,-0.0068,-0.008,-0.008,-0.008,-0.008,-0.008,0.0557,0.0611,0.0687,0.0794,0.0889,0.1016,0.1115,0.1233,0.1374,0.1488,0.1468,0.1486,0.1126,0.0649,0.0371,-0.0115,-0.014,-0.0264,-0.0359,-0.0418,-0.0471,-0.0087,-0.0126,-0.0126,-0.0126,-0.0127,-0.0127,0,0.0617,0.0677,0.0777,0.0902,0.1017,0.1058,0.1229,0.1341,0.152,0.1633,0.1711,0.1551,0.1121,0.0647,-0.0012,-0.0347,-0.0473,-0.0536,-0.0628,-0.0656,-0.0316,-0.0311,-0.0377,-0.0377,-0.0377,-0.0377,-0.0377,-0.0377,0.0648,0.0746,0.0795,0.0983,0.1079,0.1242,0.1346,0.1515,0.164,0.1793,0.1816,0.1801,0.1418,0.0274,-0.0478,-0.0641,-0.0871,-0.0932,-0.1052,-0.0822,-0.0803,-0.0786,-0.0801,-0.0969,-0.097,-0.1327,-0.1331,-0.1334]}],[{"header":{"parameterUnit":"m.s-1","parameterCategory":2,"la1":30.2991,"la2":30.254,"lo1":-89.0895,"lo2":-89.0444,"dy":0.0017,"dx":0.0017,"nx":28,"ny":28,"refTime":"2025-11-23T09:00:00:Z","depth":"2","parameterNumber":2,"parameterNumberName":"U-component_of_CURRENTS"},"data":[0,0,0,0,0,0,0,0,0,0,0,0,0,0,0,0,0,0,0,0,0,0,0,0,0,0,0,0,0,0,0,0,0,0,0,0,0,0,0,0,0,0,0,0,0,0,0,0,0,0,0,0,0,0,0,0,0,0,0.2718,0.2719,0,0.2727,0.2727,0.2727,0.2714,0.2714,0.2714,0.2714,0.2707,0.2707,0.2707,0,0,0,0,0,0,0,0,0,0,0,0,0,0.2697,0.2697,0.2718,0.2719,0.2719,0.2727,0.2727,0.2727,0.2714,0.2714,0.2714,0.2713,0.2707,0.2707,0.2707,0,0,0,0,0,0,0,0,0,0,0,0,0,0.2704,0.2697,0.2718,0.2715,0.2715,0.2727,0.2727,0.2727,0.2714,0.2714,0.2714,0.2713,0.2707,0.2707,0.2707,0.2715,0,0,0.2708,0.2708,0,0,0,0,0,0,0,0,0.2703,0.2704,0.2716,0.2716,0.2716,0.2721,0.2717,0.2723,0.2714,0.2712,0.2714,0.2713,0.2712,0.2712,0.2711,0.2714,0.2714,0.2708,0.2708,0.2708,0.2708,0,0,0,0,0,0,0,0.2703,0.2704,0.2719,0.2716,0.2716,0.2716,0.2716,0.2718,0.2712,0.2712,0.2712,0.2717,0.2712,0.2711,0.2711,0.2714,0.2708,0.2708,0.2708,0.2708,0.2776,0.2778,0,0,0,0,0,0,0.2707,0.2703,0.2719,0.272,0.2711,0.2717,0.2717,0.2718,0.2712,0.2712,0.2717,0.2716,0.2711,0.2711,0.2711,0.2761,0.2708,0.2708,0.2708,0.2775,0.2777,0.2779,0,0,0,0,0,0,0.2706,0.2708,0.2719,0.2714,0.2716,0.2718,0.2719,0.2718,0.273,0.2717,0.2715,0.2731,0.2711,0.2711,0.273,0.2759,0.2708,0.2708,0.2773,0.2775,0.2778,0.2836,0,0,0,0,0,0,0.2705,0.2707,0.2715,0.2714,0.2716,0.2736,0.2719,0.2719,0.2733,0.2733,0.2728,0.2726,0.2711,0.273,0.273,0.2759,0.2708,0.277,0.2774,0.2777,0.2831,0.284,0.2847,0,0,0,0,0,0.2704,0.2712,0.2715,0.2717,0.2724,0.2738,0.2739,0.2737,0.2735,0.2745,0.2746,0.2727,0.2751,0.2731,0.2731,0.276,0.2769,0.2773,0.2777,0.2828,0.2838,0.2847,0,0,0,0,0,0,0.2705,0.2712,0.2714,0.2724,0.2737,0.2737,0.2747,0.2749,0.2757,0.276,0.2744,0.2743,0.2775,0.2762,0.2741,0.2792,0.2759,0.2763,0.2798,0.2808,0.2816,0.2826,0.2708,0,0,0,0,0,0.2711,0.2719,0.2728,0.2738,0.2747,0.2752,0.2759,0.2762,0.2768,0.2771,0.277,0.2775,0.279,0.2794,0.2802,0.2825,0.283,0.2847,0.2855,0.2861,0.2871,0.291,0.2922,0.2792,0.2792,0.2792,0,0,0.2712,0.272,0.2723,0.274,0.2748,0.2767,0.2755,0.2775,0.2794,0.277,0.2797,0.2804,0.2805,0.2834,0.2847,0.2826,0.2903,0.2866,0.2872,0.2878,0.2915,0.2928,0.2939,0.2795,0.2794,0.2794,0,0,0.2721,0.2731,0.2742,0.2758,0.278,0.2787,0.2798,0.2811,0.2822,0.2849,0.2846,0.2873,0.2882,0.2895,0.2901,0.2959,0.2947,0.2964,0.3006,0.3043,0.3054,0.3064,0.309,0.3102,0.2962,0.2963,0.2963,0,0.2726,0.2738,0.2749,0.2769,0.2784,0.28,0.282,0.2838,0.2857,0.2875,0.2865,0.2915,0.2914,0.2961,0.2983,0.2977,0.2993,0.2966,0.3053,0.3063,0.3071,0.3096,0.3108,0.2966,0.2966,0.2965,0.2965,0,0.2741,0.2758,0.2769,0.2798,0.282,0.2841,0.2869,0.2896,0.2912,0.2929,0.2983,0.2992,0.302,0.3031,0.3022,0.3091,0.3081,0.3062,0.3026,0.3088,0.311,0.3122,0.2971,0.2969,0.2968,0.2968,0,0,0.2725,0.277,0.2773,0.2789,0.2836,0.2849,0.29,0.2942,0.2982,0.3009,0.3059,0.3095,0.3107,0.3117,0.3121,0.3155,0.323,0.3139,0.314,0.3161,0.3315,0.3243,0.3248,0.3227,0.323,0.3231,0.3306,0,0.2732,0.2764,0.2792,0.2826,0.2843,0.2884,0.2929,0.2976,0.3021,0.3076,0.3108,0.3159,0.3139,0.3166,0.3198,0.323,0.3263,0.3212,0.3256,0.3257,0.3182,0.326,0.2992,0.303,0.3317,0.3319,0.332,0,0.2731,0.2753,0.2784,0.2835,0.2849,0.2881,0.2956,0.3002,0.3092,0.3134,0.3195,0.3223,0.3291,0.3261,0.3341,0.3311,0.3321,0.3336,0.3338,0.3259,0.3207,0.3015,0.304,0.3339,0.3337,0.3336,0.3334,0,0.2692,0.2743,0.2764,0.2781,0.2849,0.2879,0.2925,0.3016,0.3071,0.3184,0.3233,0.331,0.3356,0.3393,0.3416,0.3392,0.3495,0.3458,0.3402,0.3396,0.317,0.3141,0.3514,0.3514,0.3514,0.3514,0.3513,0,0.2675,0.2689,0.2748,0.2757,0.2797,0.2859,0.2926,0.2995,0.3107,0.3169,0.3259,0.3317,0.3395,0.3449,0.3457,0.3469,0.3526,0.3431,0.342,0.3183,0.3155,0.3417,0.3405,0.3516,0.3516,0.3515,0.3515,0,0.2622,0.266,0.2685,0.2754,0.2777,0.2807,0.2913,0.2964,0.3086,0.3175,0.3215,0.3349,0.3426,0.3481,0.3555,0.3515,0.3539,0.3522,0.3238,0.3193,0.3404,0.3395,0.3477,0.3476,0.3474,0.3473,0.3472,0,0.2594,0.2602,0.2665,0.2679,0.2709,0.2768,0.2809,0.2939,0.2995,0.3171,0.3198,0.3332,0.3386,0.3481,0.3458,0.3473,0.3526,0.3214,0.3116,0.3425,0.3406,0.3398,0.339,0.2841,0.2835,0.283,0.2826,0,0.2542,0.2568,0.2588,0.2618,0.2652,0.2689,0.2757,0.2797,0.2941,0.3019,0.3118,0.3192,0.3301,0.3203,0.3242,0.3206,0.3193,0.3113,0.3518,0.2894,0.2831,0.2811,0.2822,0.2781,0.2786,0.2789,0.2792,0.2793,0.2498,0.2495,0.2522,0.2539,0.2572,0.2581,0.2575,0.2648,0.2708,0.278,0.2933,0.2945,0.2998,0.2924,0.2843,0.2775,0.2993,0.2836,0.2848,0.2867,0.2782,0.272,0.2634,0.2637,0.264,0.2643,0.2645,0,0.2425,0.2427,0.2439,0.2437,0.2418,0.2483,0.2508,0.2471,0.2466,0.257,0.2629,0.2446,0.2404,0.2452,0.2289,0.2298,0.2252,0.2193,0.2096,0.2144,0.2185,0.2062,0.1725,0.1722,0.1719,0.1716,0,0,0.2385,0.2351,0.2347,0.2275,0.2279,0.2208,0.2195,0.2164,0.2186,0.2149,0.2134,0.2315,0.2398,0.2029,0.1988,0.1824,0.1967,0.1756,0.2501,0.2437,0.2474,0.2572,0.2439,0,0,0,0,0]},{"header":{"parameterUnit":"m.s-1","parameterCategory":2,"la1":30.2991,"la2":30.254,"lo1":-89.0895,"lo2":-89.0444,"dy":0.0017,"dx":0.0017,"nx":28,"ny":28,"refTime":"2025-11-23T09:00:00:Z","depth":"2","parameterNumber":3,"parameterNumberName":"V-component_of_CURRENTS"},"data":[0,0,0,0,0,0,0,0,0,0,0,0,0,0,0,0,0,0,0,0,0,0,0,0,0,0,0,0,0,0,0,0,0,0,0,0,0,0,0,0,0,0,0,0,0,0,0,0,0,0,0,0,0,0,0,0,0,0,0.0213,0.0212,0,0.0169,0.0168,0.0168,0.0134,0.0134,0.0133,0.0133,0.0076,0.0075,0.0073,0,0,0,0,0,0,0,0,0,0,0,0,0,0.0216,0.0216,0.0213,0.0212,0.0212,0.0169,0.0168,0.0167,0.0134,0.0134,0.0133,0.0133,0.0077,0.0075,0.0073,0,0,0,0,0,0,0,0,0,0,0,0,0,0.0196,0.0216,0.0213,0.0191,0.0189,0.0169,0.0168,0.0167,0.0134,0.0134,0.0133,0.0133,0.0077,0.0075,0.0073,0.0065,0,0,0.0067,0.0066,0,0,0,0,0,0,0,0,0.0197,0.0196,0.0195,0.0193,0.019,0.0158,0.0148,0.0133,0.0134,0.0153,0.0133,0.0133,0.0104,0.0099,0.0089,0.0063,0.006,0.0067,0.0065,0.0065,0.0064,0,0,0,0,0,0,0,0.0199,0.0197,0.0194,0.0194,0.0192,0.0166,0.0163,0.0145,0.0129,0.0151,0.0149,0.0147,0.0102,0.0091,0.0088,0.0059,0.0067,0.0065,0.0064,0.0063,0.0027,0.0027,0,0,0,0,0,0,0.0211,0.0199,0.0195,0.0192,0.0195,0.0167,0.0163,0.0167,0.0129,0.0124,0.0147,0.0146,0.0095,0.009,0.0086,0.009,0.0065,0.0063,0.0061,0.0027,0.0027,0.0027,0,0,0,0,0,0,0.0211,0.0211,0.0197,0.0195,0.0192,0.0167,0.0171,0.0166,0.0158,0.0126,0.012,0.0145,0.0095,0.0089,0.0077,0.0087,0.0062,0.006,0.0026,0.0027,0.0027,0.0088,0,0,0,0,0,0,0.0211,0.0211,0.0216,0.0197,0.0193,0.0194,0.0172,0.0166,0.0158,0.0155,0.0122,0.0116,0.0094,0.008,0.0075,0.0084,0.0058,0.0026,0.0026,0.0027,0.0086,0.0091,0.0095,0,0,0,0,0,0.0212,0.0226,0.0217,0.0216,0.0201,0.0195,0.0191,0.017,0.0158,0.016,0.0138,0.0118,0.0079,0.0079,0.0073,0.0081,0.0026,0.0026,0.0027,0.0084,0.009,0.0095,0,0,0,0,0,0,0.0229,0.0223,0.0213,0.0224,0.0213,0.019,0.019,0.0175,0.0158,0.0155,0.0123,0.0116,0.0107,0.0086,0.0086,0.0071,0.0048,0.0048,0.0094,0.0099,0.0104,0.0119,0.0057,0,0,0,0,0,0.0236,0.0245,0.0231,0.0239,0.0236,0.0212,0.0206,0.0194,0.0177,0.0169,0.0146,0.0122,0.0104,0.0096,0.0074,0.007,0.0044,0.007,0.0074,0.0078,0.0086,0.0056,0.0058,0.0029,0.0029,0.0029,0,0,0.0244,0.0242,0.0246,0.0243,0.0231,0.024,0.0208,0.0205,0.0212,0.0166,0.0166,0.0135,0.0105,0.0098,0.0093,0.0084,0.0072,0.0079,0.0083,0.0088,0.0057,0.006,0.0062,0.003,0.0029,0.0029,0,0,0.0271,0.0264,0.0281,0.0278,0.0269,0.0258,0.0261,0.0241,0.0232,0.0225,0.0195,0.0173,0.0146,0.0128,0.0116,0.0132,0.0094,0.0122,0.0162,0.0133,0.0135,0.0137,0.0106,0.0104,0.0128,0.0128,0.0128,0,0.0279,0.0303,0.0284,0.0301,0.0307,0.0273,0.0296,0.0281,0.026,0.0259,0.0234,0.0192,0.0162,0.0159,0.0161,0.0143,0.0119,0.0146,0.014,0.0141,0.0141,0.0109,0.0107,0.0131,0.0131,0.0131,0.013,0,0.0322,0.0339,0.0349,0.0363,0.0365,0.0377,0.0361,0.0355,0.0335,0.0321,0.0305,0.0257,0.0236,0.0218,0.0194,0.0188,0.0167,0.0147,0.0129,0.0148,0.0113,0.0109,0.0136,0.0135,0.0134,0.0133,0,0,0.0351,0.0376,0.038,0.0402,0.0401,0.0412,0.042,0.0424,0.044,0.0395,0.0406,0.0357,0.0324,0.0307,0.0268,0.0238,0.0215,0.02,0.0197,0.0175,0.0149,0.0131,0.0124,0.0194,0.0194,0.0194,0.0122,0,0.0392,0.0445,0.0444,0.0492,0.052,0.0497,0.0513,0.0508,0.0495,0.0493,0.0432,0.0424,0.0362,0.0352,0.0312,0.0243,0.0208,0.0236,0.0129,0.0126,0.0112,0.0121,0.0142,0.008,0.0118,0.0118,0.0117,0,0.0439,0.0472,0.0529,0.0569,0.0578,0.0597,0.0623,0.0636,0.0619,0.0608,0.0577,0.0528,0.0479,0.0419,0.0309,0.033,0.0247,0.0183,0.0178,0.0139,0.01,0.0066,0.0071,0.0111,0.0111,0.0112,0.0112,0,0.0482,0.0533,0.0585,0.0598,0.0631,0.0648,0.0665,0.0669,0.0702,0.0683,0.0694,0.0619,0.059,0.0475,0.0335,0.0324,0.0206,0.0175,0.0077,0.0074,0.006,0.0057,0.0093,0.0093,0.0093,0.0094,0.0094,0,0.0534,0.0574,0.0609,0.0636,0.0703,0.0703,0.0771,0.0772,0.0794,0.0843,0.0759,0.0772,0.0603,0.051,0.0369,0.0217,0.0231,0.0086,0.0057,0.0081,0.0081,0.0082,0.0082,0.0091,0.0091,0.0092,0.0092,0,0.0574,0.0594,0.0659,0.0706,0.0726,0.0774,0.085,0.0903,0.0905,0.0962,0.0959,0.0893,0.0776,0.0594,0.0413,0.0276,0.0122,0.0061,0.0099,0.0075,-0.0003,0.0001,-0.0053,-0.0054,-0.0055,-0.0056,-0.0057,0,0.0601,0.0638,0.0715,0.0762,0.0786,0.086,0.0919,0.0957,0.1023,0.1042,0.1077,0.0981,0.0935,0.0659,0.0403,0.0155,0.012,0.0004,-0.0018,0.0007,-0.0017,-0.0012,-0.0007,-0.0018,-0.0018,-0.0019,-0.0019,0,0.0655,0.0677,0.0732,0.0831,0.0902,0.0998,0.1081,0.1149,0.1193,0.1239,0.1274,0.1234,0.0971,0.0733,0.0386,0.0214,0.0043,-0.001,0.001,0.002,0.0035,0.0014,0.0018,-0.0021,-0.0021,-0.0021,-0.0021,-0.0021,0.0693,0.0741,0.0812,0.0908,0.0996,0.111,0.1196,0.129,0.1397,0.1456,0.1418,0.1358,0.108,0.0646,0.0346,0.0024,0.0041,-0.0077,-0.0075,-0.0072,-0.0051,-0.0038,-0.0104,-0.0105,-0.0105,-0.0105,-0.0105,0,0.0742,0.0796,0.0886,0.0999,0.1102,0.1144,0.1289,0.1374,0.15,0.1545,0.1566,0.1295,0.1021,0.0689,0.022,-0.0055,-0.0078,-0.0151,-0.0114,-0.0109,-0.0106,-0.0085,-0.0149,-0.015,-0.0151,-0.0152,0,0,0.0767,0.0853,0.0897,0.1062,0.1148,0.1293,0.1378,0.1494,0.156,0.1611,0.1577,0.1508,0.1114,0.0769,0.0394,0.0121,0.0065,0.0061,0.0127,0.0219,0.0226,-0.0033,0.0008,0,0,0,0,0]}],[{"header":{"parameterUnit":"m.s-1","parameterCategory":2,"la1":30.2991,"la2":30.254,"lo1":-89.0895,"lo2":-89.0444,"dy":0.0017,"dx":0.0017,"nx":28,"ny":28,"refTime":"2025-11-23T09:00:00:Z","depth":"4","parameterNumber":2,"parameterNumberName":"U-component_of_CURRENTS"},"data":[0,0,0,0,0,0,0,0,0,0,0,0,0,0,0,0,0,0,0,0,0,0,0,0,0,0,0,0,0,0,0,0,0,0,0,0,0,0,0,0,0,0,0,0,0,0,0,0,0,0,0,0,0,0,0,0,0,0,0.1737,0.1738,0,0.1789,0.1789,0.179,0.1837,0.1838,0.1839,0.1839,0.1899,0.19,0.1901,0,0,0,0,0,0,0,0,0,0,0,0,0,0.1674,0.1675,0.1737,0.1738,0.1739,0.1789,0.1789,0.179,0.1837,0.1838,0.1839,0.184,0.1899,0.19,0.1901,0,0,0,0,0,0,0,0,0,0,0,0,0,0.1709,0.1675,0.1737,0.177,0.1773,0.1789,0.1789,0.179,0.1837,0.1838,0.1839,0.184,0.1899,0.19,0.1901,0.1887,0,0,0.1905,0.1906,0,0,0,0,0,0,0,0,0.1707,0.1711,0.1764,0.1768,0.1772,0.1809,0.1789,0.1823,0.1836,0.1811,0.1839,0.1841,0.187,0.1874,0.1878,0.189,0.1892,0.1905,0.1906,0.1907,0.1907,0,0,0,0,0,0,0,0.1704,0.1709,0.1756,0.1765,0.177,0.178,0.1786,0.1795,0.1832,0.1813,0.1817,0.1825,0.1872,0.1877,0.188,0.1893,0.1905,0.1907,0.1907,0.1908,0.2011,0.2013,0,0,0,0,0,0,0.1701,0.1707,0.1754,0.1757,0.1744,0.178,0.1787,0.1794,0.1832,0.1839,0.1824,0.1828,0.1874,0.1879,0.1883,0.1969,0.1907,0.1908,0.1909,0.2009,0.2012,0.2014,0,0,0,0,0,0,0.1699,0.1705,0.1752,0.1735,0.1742,0.1781,0.1788,0.1795,0.1839,0.1841,0.1848,0.1866,0.1875,0.1881,0.1929,0.1968,0.1909,0.191,0.2007,0.201,0.2013,0.2076,0,0,0,0,0,0,0.1697,0.1704,0.1727,0.1735,0.1743,0.1785,0.1788,0.1795,0.1841,0.1846,0.1878,0.1883,0.1877,0.1927,0.193,0.1968,0.1911,0.2005,0.2008,0.2012,0.2071,0.2081,0.2089,0,0,0,0,0,0.1695,0.1713,0.1727,0.1734,0.1767,0.1787,0.1793,0.1822,0.1842,0.1865,0.1894,0.1884,0.1953,0.193,0.1933,0.1972,0.2003,0.2007,0.2012,0.2068,0.2079,0.2088,0,0,0,0,0,0,0.1699,0.172,0.1736,0.1761,0.1786,0.1796,0.1826,0.1844,0.1883,0.1903,0.1904,0.1911,0.1969,0.1963,0.1938,0.2015,0.1978,0.1983,0.2019,0.203,0.2038,0.2043,0.1912,0,0,0,0,0,0.1709,0.1732,0.175,0.1777,0.1793,0.1818,0.1839,0.1859,0.1885,0.1906,0.1929,0.1956,0.1982,0.2002,0.2021,0.2058,0.2059,0.2088,0.2097,0.2104,0.2111,0.2148,0.216,0.2028,0.2028,0.2028,0,0,0.1718,0.1735,0.175,0.1781,0.1805,0.1831,0.1834,0.1876,0.1908,0.1904,0.197,0.199,0.2001,0.2047,0.2073,0.2052,0.2144,0.2109,0.2115,0.2119,0.2154,0.2167,0.2178,0.2031,0.2031,0.203,0,0,0.1735,0.1766,0.1788,0.1812,0.1855,0.1868,0.189,0.1924,0.1957,0.2009,0.2021,0.2068,0.2105,0.2121,0.2131,0.2199,0.219,0.2213,0.2257,0.2294,0.2304,0.2314,0.2336,0.2347,0.2214,0.2214,0.2215,0,0.1751,0.1775,0.1799,0.1827,0.1853,0.189,0.1919,0.1952,0.2003,0.2033,0.2044,0.2125,0.2137,0.2189,0.2218,0.2218,0.2235,0.2214,0.2304,0.2313,0.2322,0.2342,0.2353,0.2218,0.2218,0.2217,0.2217,0,0.1769,0.1806,0.1824,0.1869,0.1901,0.1936,0.1977,0.2026,0.2072,0.21,0.218,0.2205,0.2252,0.2268,0.2266,0.2339,0.233,0.2311,0.2274,0.2339,0.2356,0.2367,0.2223,0.2222,0.2221,0.222,0,0,0.1755,0.1823,0.1834,0.1863,0.1929,0.1949,0.2018,0.2074,0.2129,0.2188,0.2254,0.2309,0.2337,0.2352,0.2364,0.2399,0.2477,0.2391,0.2392,0.2407,0.256,0.2388,0.2383,0.2481,0.2483,0.2485,0.2548,0,0.1766,0.1815,0.1852,0.191,0.1937,0.1997,0.2053,0.2116,0.2181,0.2256,0.2302,0.2374,0.2364,0.2409,0.2442,0.2476,0.2509,0.2462,0.25,0.2501,0.2335,0.239,0.2492,0.2555,0.2558,0.2559,0.2561,0,0.1762,0.1798,0.1854,0.1929,0.1949,0.1999,0.2099,0.2156,0.2262,0.232,0.2397,0.2439,0.2517,0.2498,0.2578,0.2554,0.2568,0.2581,0.2583,0.2405,0.2348,0.2477,0.2579,0.2578,0.2577,0.2575,0.2574,0,0.1716,0.1795,0.1841,0.1867,0.196,0.2013,0.2075,0.2182,0.2244,0.2377,0.2438,0.2524,0.2586,0.2623,0.2651,0.2634,0.2724,0.2694,0.2548,0.2536,0.2644,0.2633,0.2747,0.2747,0.2747,0.2746,0.2746,0,0.1688,0.1729,0.1832,0.1855,0.1925,0.2003,0.2097,0.2177,0.23,0.2366,0.2474,0.253,0.2626,0.2678,0.2687,0.2644,0.2752,0.2563,0.2542,0.2669,0.2661,0.2651,0.2639,0.2749,0.2748,0.2748,0.2747,0,0.1624,0.1693,0.1751,0.1863,0.1905,0.196,0.21,0.2157,0.2294,0.2388,0.2438,0.2567,0.2628,0.2688,0.2755,0.2669,0.2661,0.2619,0.2761,0.2746,0.2442,0.2433,0.2457,0.2451,0.2447,0.2443,0.2439,0,0.1589,0.1616,0.1744,0.1783,0.1843,0.1939,0.1999,0.2144,0.2198,0.2376,0.2397,0.2522,0.2582,0.2534,0.2615,0.2615,0.2581,0.2556,0.2485,0.2436,0.2414,0.2413,0.241,0.2432,0.2431,0.2429,0.2428,0,0.1523,0.159,0.1639,0.172,0.1792,0.1854,0.1949,0.1976,0.2127,0.2269,0.23,0.2331,0.239,0.2423,0.2443,0.2437,0.256,0.2507,0.2515,0.2448,0.2406,0.2389,0.2392,0.2412,0.2414,0.2416,0.2417,0,0.1482,0.1499,0.1576,0.1632,0.1714,0.1734,0.1801,0.1849,0.192,0.2103,0.2108,0.2236,0.2363,0.2331,0.235,0.2332,0.2289,0.22,0.2224,0.2243,0.2141,0.2055,0.1939,0,0,0,0,0,0.1427,0.1429,0.1475,0.1518,0.1592,0.1639,0.1744,0.181,0.1952,0.1917,0.2006,0.2048,0.2075,0.2144,0.2081,0.2257,0.2302,0.2173,0.2214,0.2322,0.2341,0.2239,0,0,0,0,0,0,0.1386,0.1427,0.1433,0.141,0.142,0.1479,0.1542,0.1639,0.1623,0.1778,0.1803,0.192,0.1979,0.209,0.2041,0.2061,0.2041,0.2257,0.2251,0.2311,0.2328,0.2344,0.2245,0,0,0,0,0]},{"header":{"parameterUnit":"m.s-1","parameterCategory":2,"la1":30.2991,"la2":30.254,"lo1":-89.0895,"lo2":-89.0444,"dy":0.0017,"dx":0.0017,"nx":28,"ny":28,"refTime":"2025-11-23T09:00:00:Z","depth":"4","parameterNumber":3,"parameterNumberName":"V-component_of_CURRENTS"},"data":[0,0,0,0,0,0,0,0,0,0,0,0,0,0,0,0,0,0,0,0,0,0,0,0,0,0,0,0,0,0,0,0,0,0,0,0,0,0,0,0,0,0,0,0,0,0,0,0,0,0,0,0,0,0,0,0,0,0,0.0215,0.0215,0,0.019,0.019,0.019,0.0172,0.0172,0.0172,0.0172,0.014,0.014,0.0139,0,0,0,0,0,0,0,0,0,0,0,0,0,0.0211,0.0212,0.0215,0.0215,0.0215,0.019,0.019,0.019,0.0173,0.0172,0.0172,0.0172,0.0141,0.014,0.0139,0,0,0,0,0,0,0,0,0,0,0,0,0,0.0202,0.0212,0.0215,0.0204,0.0203,0.0191,0.019,0.0189,0.0173,0.0172,0.0172,0.0172,0.0141,0.014,0.0138,0.0132,0,0,0.0135,0.0134,0,0,0,0,0,0,0,0,0.0202,0.0202,0.0206,0.0205,0.0204,0.0185,0.0177,0.017,0.0173,0.0183,0.0172,0.0172,0.0155,0.0153,0.0147,0.0131,0.0129,0.0135,0.0134,0.0133,0.0133,0,0,0,0,0,0,0,0.0203,0.0203,0.0205,0.0206,0.0204,0.0188,0.0187,0.0175,0.0169,0.0182,0.0181,0.018,0.0154,0.0148,0.0146,0.0129,0.0135,0.0134,0.0133,0.0132,0.0115,0.0115,0,0,0,0,0,0,0.021,0.0203,0.0205,0.0204,0.0204,0.0188,0.0187,0.019,0.0169,0.0166,0.018,0.0179,0.015,0.0148,0.0145,0.0155,0.0133,0.0132,0.0132,0.0115,0.0115,0.0115,0,0,0,0,0,0,0.021,0.0211,0.0206,0.0203,0.0202,0.0189,0.0193,0.019,0.0189,0.0168,0.0164,0.0182,0.015,0.0147,0.0144,0.0153,0.0132,0.0131,0.0114,0.0115,0.0115,0.0163,0,0,0,0,0,0,0.021,0.0211,0.0217,0.0204,0.0202,0.0207,0.0193,0.019,0.0188,0.0187,0.0168,0.0165,0.015,0.0146,0.0143,0.0151,0.013,0.0114,0.0114,0.0115,0.0161,0.0165,0.0168,0,0,0,0,0,0.021,0.0222,0.0218,0.0218,0.0211,0.0208,0.0205,0.0194,0.0188,0.0192,0.018,0.0166,0.0146,0.0145,0.0141,0.0149,0.0114,0.0114,0.0115,0.0159,0.0164,0.0168,0,0,0,0,0,0,0.0223,0.0221,0.0216,0.0227,0.0221,0.0205,0.0208,0.0199,0.0192,0.0192,0.0171,0.0167,0.0166,0.0151,0.015,0.0145,0.0127,0.0127,0.0162,0.0166,0.017,0.0179,0.0129,0,0,0,0,0,0.0229,0.0238,0.023,0.0238,0.0237,0.0223,0.022,0.0214,0.0205,0.0201,0.0188,0.0174,0.0164,0.0161,0.0147,0.0148,0.0122,0.0149,0.0153,0.0156,0.016,0.013,0.0132,0.0117,0.0117,0.0117,0,0,0.0236,0.0237,0.0241,0.0241,0.0235,0.0243,0.0221,0.0222,0.023,0.0199,0.0206,0.0186,0.0166,0.0166,0.0164,0.0156,0.0146,0.0157,0.016,0.0162,0.0131,0.0132,0.0134,0.0118,0.0117,0.0117,0,0,0.0257,0.0255,0.027,0.0269,0.0266,0.026,0.0263,0.0252,0.0249,0.0249,0.0229,0.0216,0.0203,0.019,0.0182,0.0196,0.0164,0.0193,0.0222,0.0193,0.0194,0.0194,0.0161,0.0158,0.0197,0.0197,0.0197,0,0.0265,0.0284,0.0273,0.0287,0.0294,0.0272,0.0291,0.0283,0.0273,0.0274,0.0259,0.0233,0.0214,0.0213,0.0217,0.0205,0.0182,0.0209,0.0198,0.0198,0.0198,0.0163,0.0159,0.02,0.0199,0.0199,0.0199,0,0.0296,0.0312,0.0321,0.0335,0.0339,0.0351,0.0342,0.0342,0.0332,0.0324,0.0316,0.0283,0.027,0.0258,0.0243,0.0236,0.0218,0.0204,0.0189,0.0202,0.0164,0.016,0.0203,0.0202,0.0201,0.0201,0,0,0.0314,0.0339,0.0344,0.0363,0.0368,0.0377,0.0388,0.0395,0.0409,0.0381,0.039,0.0359,0.0336,0.0324,0.0297,0.0269,0.0242,0.0242,0.0239,0.0212,0.0175,0.0158,0.015,0.0229,0.0228,0.0228,0.0149,0,0.0344,0.0386,0.0389,0.0431,0.0452,0.0443,0.0459,0.046,0.0453,0.0453,0.0409,0.0406,0.0364,0.0359,0.0324,0.0266,0.0233,0.0265,0.0163,0.016,0.0146,0.0145,0.0227,0.0145,0.0144,0.0143,0.0142,0,0.0375,0.0402,0.045,0.0488,0.0497,0.0517,0.0543,0.0557,0.0547,0.054,0.0518,0.0482,0.0441,0.04,0.0302,0.0326,0.0257,0.0203,0.0198,0.0163,0.0134,0.0128,0.0133,0.0134,0.0134,0.0135,0.0136,0,0.04,0.0446,0.049,0.0502,0.0537,0.0558,0.0577,0.0584,0.0611,0.0598,0.0606,0.0545,0.0519,0.0425,0.031,0.0308,0.0192,0.0174,0.0089,0.0086,0.0105,0.0105,0.01,0.01,0.01,0.01,0.0101,0,0.043,0.0466,0.0508,0.0531,0.059,0.0598,0.0658,0.0662,0.0682,0.0715,0.0658,0.0656,0.0525,0.0441,0.0328,0.0194,0.0203,0.0092,0.0066,0.0126,0.013,0.0101,0.0102,0.0097,0.0098,0.0099,0.0099,0,0.0449,0.0474,0.0531,0.0581,0.0604,0.0647,0.0721,0.0761,0.0769,0.0806,0.0805,0.0741,0.0631,0.0488,0.033,0.0227,0.0095,0.0045,0.0119,0.0098,0.0003,0.0008,-0.0057,-0.0059,-0.006,-0.0061,-0.0061,0,0.0461,0.0492,0.0571,0.0614,0.0642,0.0712,0.0765,0.0803,0.0846,0.0856,0.0869,0.0783,0.0717,0.0485,0.0329,0.0106,0.0072,-0.0004,-0.0004,0.0006,-0.0013,-0.0006,-0.0001,-0.0063,-0.0063,-0.0064,-0.0064,0,0.0485,0.0516,0.0563,0.0653,0.072,0.0801,0.0871,0.0908,0.0945,0.0954,0.0922,0.08,0.0674,0.0488,0.0315,0.0155,0.004,-0.0016,-0.0015,-0.0016,-0.0001,-0.0018,-0.0011,-0.0067,-0.0067,-0.0067,-0.0066,0,0.0505,0.0541,0.0608,0.0687,0.0775,0.0854,0.0897,0.094,0.0981,0.0977,0.0964,0.0827,0.075,0.0513,0.0355,0.0194,0.0148,0.0084,0.0079,0.0081,0.0141,0.0181,0.0148,0,0,0,0,0,0.0521,0.0562,0.0636,0.0723,0.0812,0.0867,0.0951,0.0985,0.1015,0.0998,0.0982,0.0862,0.0628,0.0536,0.0371,0.0324,0.0113,0.0123,0.0036,-0.0088,-0.0084,-0.004,0,0,0,0,0,0,0.0529,0.0596,0.0632,0.0738,0.0803,0.0906,0.0964,0.0989,0.0979,0.098,0.0866,0.0807,0.0589,0.0723,0.0365,0.0317,0.0234,0.002,0.0015,-0.009,-0.0086,-0.0083,-0.0036,0,0,0,0,0]}]]